Regional Weather Roundup
Issued by NWS

Home | Current Version | Previous Version | Graphics & Text | Print | Product List | Glossary On
Versions: 1 2 3 4 5 6 7 8 9 10 11 12 13 14 15 16 17 18 19 20 21 22 23 24 25 26 27 28 29 30 31 32 33 34 35 36 37 38 39 40 41 42 43 44 45 46 47 48 49 50
000
ASUS43 KLSX 022359
RWRMO

WEATHER SUMMARY FOR MISSOURI
NATIONAL WEATHER SERVICE SPRINGFIELD MO
600 PM CST MON MAR 02 2015

NOTE: "FAIR" INDICATES FEW OR NO CLOUDS BELOW 12,000 FEET WITH NO
       SIGNIFICANT WEATHER AND/OR OBSTRUCTIONS TO VISIBILITY.
       CURRENT SKY AND/OR WEATHER CONDITIONS ARE NOT AVAILABLE FOR
       CHILLICOTHE AND FARMINGTON.

MOZ001>031-035>038-043-044-053-054-030100-
...NORTHERN AND WESTERN MISSOURI...

CITY           SKY/WX    TMP DP  RH WIND       PRES   REMARKS
KANSAS CTY INT CLOUDY    34  20  56 SE13      30.18F WCI  25
6HR MIN TEMP:  34; 6HR MAX TEMP:  40;

KANSAS C DTWN  CLOUDY    36  19  50 SE9       30.20F WCI  29
6HR MIN TEMP:  36; 6HR MAX TEMP:  41;

LEE`S SUMMIT   CLOUDY    34  19  54 SE12G17   30.20F WCI  25
6HR MIN TEMP:  34; 6HR MAX TEMP:  37;

ST JOSEPH      CLOUDY    35  19  52 SE18      30.20F WCI  24
6HR MIN TEMP:  35; 6HR MAX TEMP:  42;

CHILLICOTHE      N/A     34  19  54 SE13G18   30.22F WCI  25
6HR MIN TEMP:  34; 6HR MAX TEMP:  38;

KIRKSVILLE     CLOUDY    32  22  66 E12       30.25F WCI  23
6HR MIN TEMP:  29; 6HR MAX TEMP:  35;


$$
MOZ066>068-077>081-088>096-101>105-030100-
...SOUTHWEST MISSOURI...

CITY           SKY/WX    TMP DP  RH WIND       PRES   REMARKS
SPRINGFIELD    CLOUDY    35  23  61 SE16      30.22F WCI  25
6HR MIN TEMP:  35; 6HR MAX TEMP:  38;

JOPLIN         CLOUDY    35  26  69 SE9       30.21F WCI  28
6HR MIN TEMP:  35; 6HR MAX TEMP:  37;


$$
MOZ032>034-039>042-045>050-055>058-069>072-030100-
...CENTRAL MISSOURI...

CITY           SKY/WX    TMP DP  RH WIND       PRES   REMARKS
COLUMBIA       MOCLDY    34  19  54 E10       30.26F WCI  26
6HR MIN TEMP:  33; 6HR MAX TEMP:  36;

JEFFERSON CITY CLOUDY    35  20  54 E10       30.28F WCI  27
6HR MIN TEMP:  33; 6HR MAX TEMP:  37;

ROLLA          CLOUDY    34  20  56 E7        30.23F WCI  28
6HR MIN TEMP:  32; 6HR MAX TEMP:  35;

SEDALIA        CLOUDY    35  20  54 SE10      30.25F WCI  27
6HR MIN TEMP:  34; 6HR MAX TEMP:  36; 6HR PCP: TRACE;

OSAGE BEACH    CLOUDY    37  19  48 E6        30.24F

$$
MOZ051-052-059>065-030100-
...EAST CENTRAL MISSOURI...

CITY           SKY/WX    TMP DP  RH WIND       PRES   REMARKS
ST LOUIS INTL  MOCLDY    33  18  53 E13       30.35F WCI  24
6HR MIN TEMP:  33; 6HR MAX TEMP:  35;

SPIRIT OF STL  MOCLDY    33  16  49 SE5       30.34F WCI  29
6HR MIN TEMP:  32; 6HR MAX TEMP:  36;

ST CHARLES     MOCLDY    31  19  61 E13       30.35F WCI  21
6HR MIN TEMP:  30; 6HR MAX TEMP:  34;


$$
MOZ072>076-082>087-097>100-106>115-030100-
...SOUTH CENTRAL AND SOUTHEAST MISSOURI...

CITY           SKY/WX    TMP DP  RH WIND       PRES   REMARKS
CAPE GIRARDEAU CLOUDY    38  23  55 NE5       30.36F
6HR MIN TEMP:  37; 6HR MAX TEMP:  40;

FARMINGTON     CLOUDY    34  21  60 E8        30.34F WCI  27
6HR MIN TEMP:  32; 6HR MAX TEMP:  36;

POPLAR BLUFF   CLOUDY    35  21  56 NE6       30.34F
6HR MIN TEMP:  33; 6HR MAX TEMP:  37;

WEST PLAINS    CLOUDY    36  18  48 E8        30.25F WCI  30
6HR MIN TEMP:  36; 6HR MAX TEMP:  38;


$$



USA.gov is the U.S. government's official web portal to all federal, state and local government web resources and services.